Akron Canton, OH

4:19 PM EDT on July 27, 2017 (GMT -0400)
Akron-Canton Regional

Weather History for KCAK - March, 2012

Change the Weather History Date:

Tuesday, March 27, 2012

  Actual Average Record
Temperature  
Mean Temperature 41 °F 42 °F  
Max Temperature 55 °F 51 °F 79 °F (1950)
Min Temperature 26 °F 32 °F 12 °F (1982)
Degree Days  
Heating Degree Days 24 23  
Month to date heating degree days 377 761  
Since 1 July heating degree days 4214 5305  
Cooling Degree Days 0 0  
Month to date cooling degree days 22 0  
Year to date cooling degree days 22 0  
Moisture  
Dew Point 18 °F    
Average Humidity 52    
Maximum Humidity 81    
Minimum Humidity 22    
Precipitation  
Precipitation 0.00 in 0.11 in 0.92 in (1983)
Month to date precipitation 2.77 2.54  
Year to date precipitation 8.60 7.46  
Snow  
Snow 0.00 in 0.20 in - ()
Month to date snowfall 3.5 7.5  
Since 1 July snowfall 30.9 44.0  
Snow Depth 0.00 in    
Sea Level Pressure  
Sea Level Pressure 30.27 in    
Wind  
Wind Speed 8 mph (SE)    
Max Wind Speed 16 mph    
Max Gust Speed 22 mph    
Visibility 10 miles    
Events      
T = Trace of Precipitation, MM = Missing Value Source: NWS Daily Summary

Daily Weather History Graph

Daily Weather History Graph

Search for Another Location

Airport or City:

Trip Planner

Search our weather history database for the weather conditions in past years. The results will help you decide how hot, cold, wet, or windy it might be!

Date:

Astronomy

Mar. 27, 2012 Rise Set
Actual Time 7:16 AM EDT 7:45 PM EDT
Civil Twilight 6:49 AM EDT 8:13 PM EDT
Nautical Twilight 6:16 AM EDT 8:45 PM EDT
Astronomical Twilight 5:43 AM EDT 9:19 PM EDT
Moon 9:44 AM EDT No Moon Set
Length of Visible Light 13h 24m
Length of Day
12h 29m
Waxing Crescent, 22% of the Moon is Illuminated
Mar 27
Waxing Crescent
Mar 30
First Quarter
Apr 6
Full
Apr 13
Last Quarter
Apr 21
New

Hourly Weather History & Observations

Time (EDT) Temp. Windchill Dew Point Humidity Pressure Visibility Wind Dir Wind Speed Gust Speed Precip Events Conditions
12:51 AM 30.0 °F 22.4 °F 21.0 °F 69% 30.37 in 10.0 mi NNE 8.1 mph - N/A   Clear
1:51 AM 28.9 °F 21.1 °F 21.9 °F 75% 30.37 in 10.0 mi NNE 8.1 mph - N/A   Clear
2:51 AM 27.0 °F 19.5 °F 21.0 °F 78% 30.37 in 10.0 mi NNE 6.9 mph - N/A   Clear
3:51 AM 28.9 °F 21.1 °F 19.9 °F 69% 30.37 in 10.0 mi NE 8.1 mph - N/A   Clear
4:51 AM 28.0 °F 20.8 °F 18.0 °F 66% 30.35 in 10.0 mi ENE 6.9 mph - N/A   Clear
5:51 AM 27.0 °F 19.5 °F 17.1 °F 66% 30.36 in 10.0 mi East 6.9 mph - N/A   Clear
6:51 AM 27.0 °F 20.5 °F 16.0 °F 63% 30.37 in 10.0 mi East 5.8 mph - N/A   Clear
7:51 AM 26.6 °F 21.2 °F 15.8 °F 64% 30.34 in 10.0 mi ESE 4.6 mph - N/A   Clear
8:51 AM 30.0 °F 22.4 °F 16.0 °F 56% 30.39 in 10.0 mi SE 8.1 mph - N/A   Partly Cloudy
9:51 AM 33.1 °F 26.9 °F 16.0 °F 50% 30.39 in 10.0 mi South 6.9 mph - N/A   Partly Cloudy
10:51 AM 36.0 °F 32.1 °F 16.0 °F 44% 30.39 in 10.0 mi SSE 4.6 mph - N/A   Partly Cloudy
11:51 AM 39.0 °F 34.8 °F 12.9 °F 34% 30.39 in 10.0 mi South 5.8 mph - N/A   Partly Cloudy
12:51 PM 43.0 °F 39.5 °F 15.1 °F 32% 30.35 in 10.0 mi SSE 5.8 mph - N/A   Scattered Clouds
1:51 PM 46.9 °F - 18.0 °F 32% 30.30 in 10.0 mi SE 11.5 mph 16.1 mph N/A   Scattered Clouds
2:51 PM 50.0 °F - 15.1 °F 25% 30.27 in 10.0 mi SE 11.5 mph 16.1 mph N/A   Scattered Clouds
3:51 PM 52.0 °F - 17.1 °F 25% 30.23 in 10.0 mi South 8.1 mph - N/A   Mostly Cloudy
4:51 PM 53.6 °F - 15.8 °F 22% 30.18 in 10.0 mi SSW 6.9 mph - N/A   Mostly Cloudy
5:51 PM 54.0 °F - 17.1 °F 23% 30.17 in 10.0 mi South 11.5 mph - N/A   Mostly Cloudy
6:51 PM 53.1 °F - 19.9 °F 27% 30.14 in 10.0 mi South 16.1 mph - N/A   Mostly Cloudy
7:51 PM 51.1 °F - 19.9 °F 29% 30.12 in 10.0 mi South 11.5 mph - N/A   Mostly Cloudy
8:51 PM 50.0 °F - 21.9 °F 33% 30.08 in 10.0 mi South 9.2 mph - N/A   Mostly Cloudy
9:51 PM 50.0 °F - 21.0 °F 32% 30.04 in 10.0 mi South 10.4 mph - N/A   Mostly Cloudy
10:51 PM 50.0 °F - 19.9 °F 31% 30.04 in 10.0 mi South 9.2 mph - N/A   Mostly Cloudy
11:51 PM 50.0 °F - 19.9 °F 31% 30.01 in 10.0 mi South 8.1 mph - N/A   Mostly Cloudy